| time (UTC) | temp F | wind direction | speed MPH | gust MPH | rain 1hr in | rain 24hr in | rain mn in | humidity % | barometer mb |
| 20260904034552 | 82 | 123 | 6.0 | 10.0 | 0.00 | 0.00 | 0.00 | 71 | 1013.3 |
| 20260904034022 | 82 | 145 | 6.0 | 11.0 | 0.00 | 0.00 | 0.00 | 71 | 1013.3 |
| 20260904033529 | 82 | 137 | 6.0 | 14.0 | 0.00 | 0.00 | 0.00 | 71 | 1013.3 |
| 20260904033042 | 83 | 140 | 8.0 | 14.0 | 0.00 | 0.00 | 0.00 | 71 | 1013.3 |
| 20260904032523 | 83 | 147 | 8.0 | 12.0 | 0.00 | 0.00 | 0.00 | 72 | 1013.2 |
| 20260904032018 | 83 | 142 | 6.0 | 14.0 | 0.00 | 0.00 | 0.00 | 73 | 1013.3 |
| 20260904031544 | 83 | 137 | 8.0 | 14.0 | 0.00 | 0.00 | 0.00 | 73 | 1013.3 |
| 20260904031024 | 83 | 139 | 9.0 | 13.0 | 0.00 | 0.00 | 0.00 | 73 | 1013.3 |
| 20260904030525 | 83 | 142 | 7.0 | 14.0 | 0.00 | 0.00 | 0.00 | 73 | 1013.2 |
| 20260904030049 | 83 | 124 | 9.0 | 14.0 | 0.00 | 0.00 | 0.00 | 73 | 1013.2 |
| 20260904025524 | 83 | 140 | 7.0 | 15.0 | 0.00 | 0.00 | 0.00 | 73 | 1013.1 |
| 20260904025023 | 83 | 146 | 7.0 | 15.0 | 0.00 | 0.00 | 0.00 | 72 | 1013.1 |
| 20260904024541 | 84 | 159 | 10.0 | 18.0 | 0.00 | 0.00 | 0.00 | 72 | 1013.0 |
| 20260904024023 | 84 | 139 | 8.0 | 18.0 | 0.00 | 0.00 | 0.00 | 71 | 1012.9 |
| 20260904023518 | 84 | 129 | 12.0 | 18.0 | 0.00 | 0.00 | 0.00 | 69 | 1012.7 |
| 20260904023042 | 85 | 155 | 8.0 | 15.0 | 0.00 | 0.00 | 0.00 | 66 | 1012.7 |
| 20260904022525 | 85 | 141 | 5.0 | 13.0 | 0.00 | 0.00 | 0.00 | 65 | 1012.5 |
| 20260904022025 | 85 | 134 | 8.0 | 16.0 | 0.00 | 0.00 | 0.00 | 65 | 1012.5 |
| 20260904021555 | 85 | 133 | 7.0 | 16.0 | 0.00 | 0.00 | 0.00 | 66 | 1012.3 |
| 20260904021025 | 85 | 152 | 5.0 | 12.0 | 0.00 | 0.00 | 0.00 | 66 | 1012.3 |
| 20260904020525 | 85 | 151 | 7.0 | 14.0 | 0.00 | 0.00 | 0.00 | 66 | 1012.2 |
| 20260904020041 | 85 | 149 | 5.0 | 14.0 | 0.00 | 0.00 | 0.00 | 66 | 1012.0 |
| 20260904015525 | 85 | 124 | 5.0 | 13.0 | 0.00 | 0.00 | 0.00 | 66 | 1011.9 |
| 20260904015024 | 86 | 134 | 6.0 | 13.0 | 0.00 | 0.00 | 0.00 | 66 | 1011.9 |
| 20260904014623 | 86 | 141 | 7.0 | 13.0 | 0.00 | 0.00 | 0.00 | 66 | 1011.8 |
| 20260904014024 | 86 | 137 | 5.0 | 15.0 | 0.00 | 0.00 | 0.00 | 66 | 1011.7 |
| 20260904013522 | 86 | 136 | 5.0 | 15.0 | 0.00 | 0.00 | 0.00 | 66 | 1011.7 |
| 20260904013043 | 87 | 149 | 10.0 | 15.0 | 0.00 | 0.00 | 0.00 | 65 | 1011.7 |
| 20260904012521 | 87 | 121 | 6.0 | 15.0 | 0.00 | 0.00 | 0.00 | 65 | 1011.6 |
| 20260904012021 | 87 | 171 | 6.0 | 15.0 | 0.00 | 0.00 | 0.00 | 65 | 1011.5 |
| 20260904011542 | 87 | 129 | 6.0 | 15.0 | 0.00 | 0.00 | 0.00 | 65 | 1011.5 |
| 20260904011023 | 87 | 148 | 10.0 | 15.0 | 0.00 | 0.00 | 0.00 | 64 | 1011.4 |
| 20260904010525 | 87 | 134 | 9.0 | 15.0 | 0.00 | 0.00 | 0.00 | 64 | 1011.5 |
| 20260904010049 | 88 | 138 | 9.0 | 15.0 | 0.00 | 0.00 | 0.00 | 64 | 1011.5 |
| 20260904005524 | 88 | 142 | 8.0 | 14.0 | 0.00 | 0.00 | 0.00 | 64 | 1011.4 |
| 20260904005024 | 88 | 149 | 9.0 | 14.0 | 0.00 | 0.00 | 0.00 | 64 | 1011.4 |
| 20260904004547 | 88 | 123 | 7.0 | 15.0 | 0.00 | 0.00 | 0.00 | 64 | 1011.5 |
| 20260904004025 | 88 | 129 | 7.0 | 15.0 | 0.00 | 0.00 | 0.00 | 65 | 1011.4 |
| 20260904003523 | 88 | 144 | 10.0 | 16.0 | 0.00 | 0.00 | 0.00 | 64 | 1011.3 |
| 20260904003041 | 88 | 136 | 8.0 | 16.0 | 0.00 | 0.00 | 0.00 | 64 | 1011.3 |
| 20260904002523 | 88 | 150 | 10.0 | 16.0 | 0.00 | 0.00 | 0.00 | 64 | 1011.3 |
| 20260904002021 | 89 | 141 | 8.0 | 15.0 | 0.00 | 0.00 | 0.00 | 64 | 1011.2 |
| 20260904001542 | 89 | 163 | 8.0 | 18.0 | 0.00 | 0.00 | 0.00 | 64 | 1011.2 |
| 20260904001025 | 89 | 151 | 11.0 | 18.0 | 0.00 | 0.00 | 0.00 | 64 | 1011.2 |
| 20260904000518 | 89 | 154 | 9.0 | 15.0 | 0.00 | 0.00 | 0.00 | 64 | 1011.1 |
| 20260904000135 | 89 | 117 | 9.0 | 15.0 | 0.00 | 0.00 | 0.00 | 64 | 1011.2 |
| 20260903235529 | 89 | 139 | 8.0 | 14.0 | 0.00 | 0.00 | 0.00 | 64 | 1011.0 |
| 20260903235025 | 89 | 121 | 8.0 | 14.0 | 0.00 | 0.00 | 0.00 | 64 | 1011.0 |
| 20260903234551 | 90 | 165 | 8.0 | 12.0 | 0.00 | 0.00 | 0.00 | 63 | 1010.9 |
| 20260903234024 | 90 | 128 | 8.0 | 12.0 | 0.00 | 0.00 | 0.00 | 63 | 1011.0 |
| 20260903233519 | 90 | 172 | 4.0 | 13.0 | 0.00 | 0.00 | 0.00 | 63 | 1011.1 |
| 20260903233042 | 90 | 146 | 7.0 | 14.0 | 0.00 | 0.00 | 0.00 | 62 | 1010.9 |
| 20260903232528 | 90 | 121 | 8.0 | 14.0 | 0.00 | 0.00 | 0.00 | 62 | 1010.6 |
| 20260903232018 | 90 | 161 | 9.0 | 14.0 | 0.00 | 0.00 | 0.00 | 62 | 1010.5 |
| 20260903231555 | 91 | 154 | 7.0 | 15.0 | 0.00 | 0.00 | 0.00 | 62 | 1010.6 |
| 20260903231020 | 91 | 120 | 8.0 | 15.0 | 0.00 | 0.00 | 0.00 | 61 | 1010.4 |
| 20260903230526 | 91 | 141 | 9.0 | 18.0 | 0.00 | 0.00 | 0.00 | 61 | 1010.5 |
| 20260903230044 | 91 | 114 | 5.0 | 18.0 | 0.00 | 0.00 | 0.00 | 61 | 1010.6 |
| 20260903225525 | 91 | 136 | 6.0 | 17.0 | 0.00 | 0.00 | 0.00 | 61 | 1010.4 |
| 20260903225023 | 91 | 150 | 9.0 | 16.0 | 0.00 | 0.00 | 0.00 | 61 | 1010.5 |
| 20260903224548 | 91 | 141 | 8.0 | 16.0 | 0.00 | 0.00 | 0.00 | 61 | 1010.8 |
| 20260903224023 | 91 | 151 | 8.0 | 15.0 | 0.00 | 0.00 | 0.00 | 62 | 1010.8 |
| 20260903223524 | 91 | 140 | 8.0 | 15.0 | 0.00 | 0.00 | 0.00 | 61 | 1010.6 |
| 20260903223043 | 91 | 121 | 9.0 | 18.0 | 0.00 | 0.00 | 0.00 | 62 | 1010.7 |
| 20260903222521 | 91 | 157 | 11.0 | 18.0 | 0.00 | 0.00 | 0.00 | 62 | 1010.7 |
| 20260903222019 | 91 | 159 | 9.0 | 17.0 | 0.00 | 0.00 | 0.00 | 61 | 1010.4 |
| 20260903221544 | 91 | 141 | 12.0 | 17.0 | 0.00 | 0.00 | 0.00 | 61 | 1010.4 |
| 20260903221020 | 91 | 97 | 9.0 | 17.0 | 0.00 | 0.00 | 0.00 | 62 | 1010.5 |
| 20260903220524 | 92 | 171 | 7.0 | 19.0 | 0.00 | 0.00 | 0.00 | 61 | 1010.6 |
| 20260903220105 | 92 | 82 | 10.0 | 19.0 | 0.00 | 0.00 | 0.00 | 62 | 1010.4 |
| 20260903215524 | 92 | 140 | 8.0 | 16.0 | 0.00 | 0.00 | 0.00 | 62 | 1010.4 |
| 20260903215024 | 92 | 144 | 6.0 | 17.0 | 0.00 | 0.00 | 0.00 | 61 | 1010.5 |
| 20260903214552 | 92 | 137 | 8.0 | 17.0 | 0.00 | 0.00 | 0.00 | 62 | 1010.6 |
| 20260903214024 | 93 | 126 | 7.0 | 15.0 | 0.00 | 0.00 | 0.00 | 61 | 1010.6 |
| 20260903213524 | 93 | 122 | 7.0 | 15.0 | 0.00 | 0.00 | 0.00 | 60 | 1010.6 |
| 20260903213048 | 94 | 153 | 5.0 | 12.0 | 0.00 | 0.00 | 0.00 | 61 | 1010.6 |
| 20260903212519 | 93 | 184 | 5.0 | 15.0 | 0.00 | 0.00 | 0.00 | 61 | 1010.7 |
| 20260903212019 | 93 | 116 | 6.0 | 19.0 | 0.00 | 0.00 | 0.00 | 61 | 1010.8 |
| 20260903211544 | 92 | 161 | 10.0 | 19.0 | 0.00 | 0.00 | 0.00 | 62 | 1010.8 |
| 20260903211019 | 93 | 157 | 10.0 | 19.0 | 0.00 | 0.00 | 0.00 | 60 | 1010.9 |
| 20260903210524 | 94 | 143 | 5.0 | 13.0 | 0.00 | 0.00 | 0.00 | 60 | 1010.9 |
| 20260903210047 | 93 | 171 | 5.0 | 13.0 | 0.00 | 0.00 | 0.00 | 61 | 1011.0 |
| 20260903205525 | 93 | 123 | 6.0 | 14.0 | 0.00 | 0.00 | 0.00 | 61 | 1011.1 |
| 20260903205024 | 94 | 137 | 6.0 | 14.0 | 0.00 | 0.00 | 0.00 | 60 | 1011.1 |
| 20260903204546 | 93 | 112 | 6.0 | 18.0 | 0.00 | 0.00 | 0.00 | 61 | 1011.2 |
| 20260903204022 | 93 | 146 | 7.0 | 18.0 | 0.00 | 0.00 | 0.00 | 61 | 1011.2 |
| 20260903203525 | 94 | 144 | 5.0 | 13.0 | 0.00 | 0.00 | 0.00 | 60 | 1011.3 |
| 20260903203044 | 93 | 152 | 6.0 | 13.0 | 0.00 | 0.00 | 0.00 | 59 | 1011.4 |
| 20260903202520 | 94 | 141 | 5.0 | 12.0 | 0.00 | 0.00 | 0.00 | 61 | 1011.5 |
| 20260903202025 | 93 | 170 | 6.0 | 17.0 | 0.00 | 0.00 | 0.00 | 61 | 1011.5 |
| 20260903201549 | 93 | 148 | 5.0 | 17.0 | 0.00 | 0.00 | 0.00 | 61 | 1011.6 |
| 20260903201023 | 92 | 120 | 9.0 | 17.0 | 0.00 | 0.00 | 0.00 | 62 | 1011.5 |
| 20260903200525 | 92 | 125 | 4.0 | 15.0 | 0.00 | 0.00 | 0.00 | 62 | 1011.6 |
| 20260903200043 | 91 | 90 | 6.0 | 15.0 | 0.00 | 0.00 | 0.00 | 64 | 1011.4 |
| 20260903195525 | 90 | 158 | 3.0 | 15.0 | 0.00 | 0.00 | 0.00 | 64 | 1011.6 |
| 20260903195025 | 90 | 162 | 7.0 | 15.0 | 0.00 | 0.00 | 0.00 | 64 | 1011.7 |
| 20260903194549 | 91 | 115 | 6.0 | 16.0 | 0.00 | 0.00 | 0.00 | 64 | 1011.7 |
| 20260903194017 | 92 | 135 | 5.0 | 16.0 | 0.00 | 0.00 | 0.00 | 63 | 1011.7 |
| 20260903193521 | 92 | 134 | 3.0 | 12.0 | 0.00 | 0.00 | 0.00 | 62 | 1011.9 |
| 20260903193053 | 92 | 167 | 4.0 | 13.0 | 0.00 | 0.00 | 0.00 | 61 | 1011.9 |
| 20260903192523 | 91 | 192 | 7.0 | 14.0 | 0.00 | 0.00 | 0.00 | 62 | 1012.0 |
| 20260903192023 | 92 | 165 | 5.0 | 14.0 | 0.00 | 0.00 | 0.00 | 62 | 1012.1 |
| 20260903191546 | 92 | 166 | 6.0 | 14.0 | 0.00 | 0.00 | 0.00 | 63 | 1012.1 |
| 20260903191024 | 92 | 118 | 5.0 | 15.0 | 0.00 | 0.00 | 0.00 | 62 | 1012.2 |
| 20260903190518 | 92 | 164 | 5.0 | 15.0 | 0.00 | 0.00 | 0.00 | 62 | 1012.4 |
| 20260903190055 | 91 | 142 | 8.0 | 15.0 | 0.00 | 0.00 | 0.00 | 63 | 1012.4 |
| 20260903185523 | 92 | 146 | 3.0 | 10.0 | 0.00 | 0.00 | 0.00 | 61 | 1012.5 |
| 20260903185025 | 93 | 138 | 3.0 | 9.0 | 0.00 | 0.00 | 0.00 | 61 | 1012.6 |
| 20260903184541 | 92 | 184 | 3.0 | 10.0 | 0.00 | 0.00 | 0.00 | 62 | 1012.6 |
| 20260903184026 | 90 | 144 | 4.0 | 13.0 | 0.00 | 0.00 | 0.00 | 64 | 1012.6 |
| 20260903183527 | 91 | 154 | 7.0 | 13.0 | 0.00 | 0.00 | 0.00 | 62 | 1012.8 |
| 20260903183048 | 92 | 148 | 5.0 | 12.0 | 0.00 | 0.00 | 0.00 | 61 | 1012.9 |
| 20260903182522 | 91 | 126 | 4.0 | 13.0 | 0.00 | 0.00 | 0.00 | 64 | 1012.9 |
| 20260903182023 | 90 | 137 | 5.0 | 13.0 | 0.00 | 0.00 | 0.00 | 64 | 1012.9 |
| 20260903181548 | 90 | 130 | 6.0 | 13.0 | 0.00 | 0.00 | 0.00 | 65 | 1013.0 |
| 20260903181021 | 90 | 119 | 7.0 | 13.0 | 0.00 | 0.00 | 0.00 | 64 | 1013.0 |
| 20260903180521 | 90 | 145 | 6.0 | 13.0 | 0.00 | 0.00 | 0.00 | 65 | 1013.1 |
| 20260903180049 | 90 | 161 | 5.0 | 12.0 | 0.00 | 0.00 | 0.00 | 66 | 1013.2 |
| 20260903175518 | 90 | 181 | 7.0 | 12.0 | 0.00 | 0.00 | 0.00 | 66 | 1013.3 |
| 20260903175024 | 90 | 163 | 5.0 | 10.0 | 0.00 | 0.00 | 0.00 | 66 | 1013.2 |
| 20260903174540 | 89 | 110 | 3.0 | 9.0 | 0.00 | 0.00 | 0.00 | 68 | 1013.3 |
| 20260903174025 | 88 | 154 | 3.0 | 12.0 | 0.00 | 0.00 | 0.00 | 68 | 1013.4 |
| 20260903173524 | 88 | 136 | 5.0 | 14.0 | 0.00 | 0.00 | 0.00 | 69 | 1013.5 |
| 20260903173051 | 88 | 163 | 5.0 | 14.0 | 0.00 | 0.00 | 0.00 | 69 | 1013.5 |
| 20260903172525 | 88 | 128 | 5.0 | 12.0 | 0.00 | 0.00 | 0.00 | 68 | 1013.6 |
| 20260903172023 | 88 | 0 | 2.0 | 14.0 | 0.00 | 0.00 | 0.00 | 69 | 1013.6 |
| 20260903171543 | 88 | 193 | 5.0 | 14.0 | 0.00 | 0.00 | 0.00 | 68 | 1013.6 |
| 20260903171019 | 89 | 200 | 3.0 | 10.0 | 0.00 | 0.00 | 0.00 | 67 | 1013.6 |
| 20260903170521 | 88 | 138 | 4.0 | 14.0 | 0.00 | 0.00 | 0.00 | 69 | 1013.7 |
| 20260903170053 | 87 | 146 | 6.0 | 14.0 | 0.00 | 0.00 | 0.00 | 70 | 1013.6 |
| 20260903165521 | 87 | 137 | 5.0 | 13.0 | 0.00 | 0.00 | 0.00 | 70 | 1013.7 |
| 20260903165021 | 87 | 190 | 4.0 | 11.0 | 0.00 | 0.00 | 0.00 | 70 | 1013.7 |
| 20260903164549 | 87 | 142 | 3.0 | 16.0 | 0.00 | 0.00 | 0.00 | 70 | 1013.8 |
| 20260903164025 | 87 | 155 | 8.0 | 16.0 | 0.00 | 0.00 | 0.00 | 69 | 1013.8 |
| 20260903163526 | 87 | 146 | 4.0 | 15.0 | 0.00 | 0.00 | 0.00 | 69 | 1013.7 |
| 20260903163059 | 87 | 140 | 5.0 | 13.0 | 0.00 | 0.00 | 0.00 | 70 | 1013.7 |
| 20260903162522 | 86 | 155 | 3.0 | 13.0 | 0.00 | 0.00 | 0.00 | 70 | 1013.8 |
| 20260903162023 | 86 | 182 | 7.0 | 14.0 | 0.00 | 0.00 | 0.00 | 72 | 1013.9 |
| 20260903161542 | 86 | 140 | 5.0 | 14.0 | 0.00 | 0.00 | 0.00 | 72 | 1013.9 |
| 20260903161022 | 85 | 0 | 4.0 | 10.0 | 0.00 | 0.00 | 0.00 | 74 | 1013.8 |
| 20260903160523 | 85 | 144 | 5.0 | 10.0 | 0.00 | 0.00 | 0.00 | 73 | 1013.8 |
| 20260903160042 | 85 | 126 | 4.0 | 10.0 | 0.00 | 0.00 | 0.00 | 73 | 1013.9 |
| 20260903155520 | 84 | 148 | 3.0 | 8.0 | 0.00 | 0.00 | 0.00 | 74 | 1013.8 |
| 20260903155021 | 84 | 171 | 1.0 | 11.0 | 0.00 | 0.00 | 0.00 | 75 | 1013.8 |
| 20260903154542 | 83 | 136 | 2.0 | 11.0 | 0.00 | 0.00 | 0.00 | 76 | 1013.9 |
| 20260903154022 | 82 | 140 | 7.0 | 12.0 | 0.00 | 0.00 | 0.00 | 77 | 1013.9 |
| 20260903153523 | 82 | 140 | 5.0 | 12.0 | 0.00 | 0.00 | 0.00 | 77 | 1013.9 |
| 20260903153040 | 82 | 146 | 5.0 | 12.0 | 0.00 | 0.00 | 0.00 | 76 | 1013.7 |
| 20260903152526 | 83 | 153 | 5.0 | 13.0 | 0.00 | 0.00 | 0.00 | 75 | 1013.8 |
| 20260903152025 | 83 | 155 | 4.0 | 13.0 | 0.00 | 0.00 | 0.00 | 75 | 1013.8 |
| 20260903151542 | 83 | 143 | 5.0 | 12.0 | 0.00 | 0.00 | 0.00 | 76 | 1013.8 |
| 20260903151021 | 82 | 186 | 4.0 | 12.0 | 0.00 | 0.00 | 0.00 | 77 | 1013.8 |
| 20260903150524 | 82 | 107 | 5.0 | 12.0 | 0.00 | 0.00 | 0.00 | 77 | 1013.8 |
| 20260903150105 | 82 | 125 | 6.0 | 14.0 | 0.00 | 0.00 | 0.00 | 78 | 1013.9 |
| 20260903145518 | 81 | 130 | 9.0 | 14.0 | 0.00 | 0.00 | 0.00 | 79 | 1014.0 |
| 20260903145018 | 81 | 125 | 5.0 | 13.0 | 0.00 | 0.00 | 0.00 | 79 | 1014.0 |
| 20260903144541 | 80 | 125 | 6.0 | 12.0 | 0.00 | 0.00 | 0.00 | 79 | 1014.0 |
| 20260903144021 | 80 | 143 | 6.0 | 13.0 | 0.00 | 0.00 | 0.00 | 80 | 1013.9 |
| 20260903143520 | 80 | 148 | 6.0 | 13.0 | 0.00 | 0.00 | 0.00 | 80 | 1014.0 |
| 20260903143044 | 79 | 140 | 8.0 | 12.0 | 0.00 | 0.00 | 0.00 | 80 | 1013.9 |
| 20260903142524 | 80 | 127 | 8.0 | 12.0 | 0.00 | 0.00 | 0.00 | 79 | 1014.0 |
| 20260903142024 | 80 | 138 | 3.0 | 10.0 | 0.00 | 0.00 | 0.00 | 79 | 1013.9 |
| 20260903141552 | 80 | 144 | 3.0 | 8.0 | 0.00 | 0.00 | 0.00 | 79 | 1013.8 |
| 20260903141025 | 80 | 150 | 3.0 | 8.0 | 0.00 | 0.00 | 0.00 | 78 | 1013.8 |
| 20260903140523 | 80 | 138 | 4.0 | 8.0 | 0.00 | 0.00 | 0.00 | 78 | 1013.8 |
| 20260903140047 | 80 | 118 | 4.0 | 8.0 | 0.00 | 0.00 | 0.00 | 77 | 1013.8 |
| 20260903135522 | 80 | 121 | 4.0 | 8.0 | 0.00 | 0.00 | 0.00 | 77 | 1013.7 |
| 20260903135022 | 80 | 138 | 4.0 | 8.0 | 0.00 | 0.00 | 0.00 | 78 | 1013.8 |
| 20260903134541 | 80 | 125 | 4.0 | 8.0 | 0.00 | 0.00 | 0.00 | 77 | 1013.9 |
| 20260903134021 | 80 | 112 | 3.0 | 7.0 | 0.00 | 0.00 | 0.00 | 78 | 1013.9 |
| 20260903133521 | 79 | 150 | 1.0 | 5.0 | 0.00 | 0.00 | 0.00 | 79 | 1013.8 |
| 20260903133040 | 79 | 0 | 0.0 | 3.0 | 0.00 | 0.00 | 0.00 | 80 | 1013.7 |
| 20260903132520 | 78 | 0 | 0.0 | 3.0 | 0.00 | 0.00 | 0.00 | 81 | 1013.8 |
| 20260903132020 | 78 | 0 | 1.0 | 4.0 | 0.00 | 0.00 | 0.00 | 81 | 1013.9 |
| 20260903131549 | 78 | 124 | 1.0 | 6.0 | 0.00 | 0.00 | 0.00 | 81 | 1013.9 |
| 20260903131023 | 78 | 131 | 2.0 | 6.0 | 0.00 | 0.00 | 0.00 | 81 | 1014.0 |
| 20260903130522 | 77 | 138 | 1.0 | 5.0 | 0.00 | 0.00 | 0.00 | 82 | 1013.8 |
| 20260903130043 | 77 | 142 | 2.0 | 5.0 | 0.00 | 0.00 | 0.00 | 82 | 1013.8 |
| 20260903125521 | 76 | 139 | 1.0 | 5.0 | 0.00 | 0.00 | 0.00 | 83 | 1013.8 |
| 20260903125024 | 76 | 0 | 0.0 | 0.0 | 0.00 | 0.00 | 0.00 | 84 | 1013.8 |
| 20260903124540 | 76 | 0 | 0.0 | 0.0 | 0.00 | 0.00 | 0.00 | 84 | 1013.8 |
| 20260903124017 | 76 | 0 | 0.0 | 0.0 | 0.00 | 0.00 | 0.00 | 84 | 1013.7 |
| 20260903123520 | 76 | 0 | 0.0 | 0.0 | 0.00 | 0.00 | 0.00 | 84 | 1013.6 |
| 20260903123041 | 76 | 0 | 0.0 | 0.0 | 0.00 | 0.00 | 0.00 | 84 | 1013.5 |
| 20260903122521 | 76 | 0 | 0.0 | 1.0 | 0.00 | 0.00 | 0.00 | 84 | 1013.5 |
| 20260903122020 | 76 | 0 | 0.0 | 2.0 | 0.00 | 0.00 | 0.00 | 84 | 1013.6 |
| 20260903121547 | 76 | 0 | 0.0 | 2.0 | 0.00 | 0.00 | 0.00 | 84 | 1013.6 |
| 20260903121022 | 76 | 140 | 0.0 | 5.0 | 0.00 | 0.00 | 0.00 | 84 | 1013.6 |
| 20260903120524 | 76 | 140 | 0.0 | 5.0 | 0.00 | 0.00 | 0.00 | 83 | 1013.5 |
| 20260903120042 | 76 | 141 | 3.0 | 5.0 | 0.00 | 0.00 | 0.00 | 83 | 1013.5 |
| 20260903115519 | 76 | 140 | 2.0 | 7.0 | 0.00 | 0.00 | 0.00 | 83 | 1013.5 |
| 20260903115020 | 76 | 0 | 2.0 | 7.0 | 0.00 | 0.00 | 0.00 | 84 | 1013.5 |
| 20260903114559 | 76 | 136 | 3.0 | 7.0 | 0.00 | 0.00 | 0.00 | 84 | 1013.5 |
| 20260903114019 | 76 | 0 | 0.0 | 0.0 | 0.00 | 0.00 | 0.00 | 84 | 1013.5 |
| 20260903113524 | 75 | 0 | 0.0 | 0.0 | 0.00 | 0.00 | 0.00 | 84 | 1013.5 |
| 20260903113046 | 75 | 0 | 0.0 | 0.0 | 0.00 | 0.00 | 0.00 | 84 | 1013.4 |
| 20260903112524 | 75 | 0 | 0.0 | 0.0 | 0.00 | 0.00 | 0.00 | 84 | 1013.5 |
| 20260903112026 | 76 | 0 | 0.0 | 0.0 | 0.00 | 0.00 | 0.00 | 84 | 1013.3 |
| 20260903111548 | 76 | 0 | 0.0 | 0.0 | 0.00 | 0.00 | 0.00 | 84 | 1013.3 |
| 20260903111025 | 76 | 0 | 0.0 | 0.0 | 0.00 | 0.00 | 0.00 | 84 | 1013.2 |
| 20260903110520 | 76 | 0 | 0.0 | 0.0 | 0.00 | 0.00 | 0.00 | 83 | 1013.3 |
| 20260903110045 | 76 | 0 | 0.0 | 0.0 | 0.00 | 0.00 | 0.00 | 83 | 1013.1 |
| 20260903105518 | 76 | 0 | 0.0 | 0.0 | 0.00 | 0.00 | 0.00 | 83 | 1013.1 |
| 20260903105020 | 76 | 0 | 0.0 | 0.0 | 0.00 | 0.00 | 0.00 | 83 | 1013.2 |
| 20260903104548 | 76 | 0 | 0.0 | 0.0 | 0.00 | 0.00 | 0.00 | 83 | 1013.2 |
| 20260903104023 | 76 | 0 | 0.0 | 0.0 | 0.00 | 0.00 | 0.00 | 83 | 1013.2 |
| 20260903103520 | 76 | 0 | 0.0 | 0.0 | 0.00 | 0.00 | 0.00 | 83 | 1013.1 |
| 20260903103053 | 76 | 0 | 0.0 | 0.0 | 0.00 | 0.00 | 0.00 | 83 | 1013.3 |
| 20260903102523 | 76 | 0 | 0.0 | 0.0 | 0.00 | 0.00 | 0.00 | 84 | 1013.4 |
| 20260903102022 | 76 | 0 | 0.0 | 0.0 | 0.00 | 0.00 | 0.00 | 84 | 1013.4 |
| 20260903101547 | 76 | 0 | 0.0 | 0.0 | 0.00 | 0.00 | 0.00 | 84 | 1013.4 |
| 20260903101021 | 75 | 0 | 0.0 | 0.0 | 0.00 | 0.00 | 0.00 | 84 | 1013.3 |
| 20260903100522 | 75 | 0 | 0.0 | 0.0 | 0.00 | 0.00 | 0.00 | 83 | 1013.4 |
| 20260903100044 | 75 | 0 | 0.0 | 0.0 | 0.00 | 0.00 | 0.00 | 83 | 1013.4 |
| 20260903095520 | 75 | 0 | 0.0 | 0.0 | 0.00 | 0.00 | 0.00 | 83 | 1013.4 |
| 20260903095024 | 75 | 0 | 0.0 | 0.0 | 0.00 | 0.00 | 0.00 | 83 | 1013.2 |
| 20260903094546 | 76 | 0 | 0.0 | 0.0 | 0.00 | 0.00 | 0.00 | 83 | 1013.4 |
| 20260903094020 | 76 | 0 | 0.0 | 0.0 | 0.00 | 0.00 | 0.00 | 83 | 1013.3 |
| 20260903093527 | 76 | 0 | 0.0 | 0.0 | 0.00 | 0.00 | 0.00 | 83 | 1013.3 |
| 20260903093120 | 76 | 0 | 0.0 | 0.0 | 0.00 | 0.00 | 0.00 | 82 | 1013.2 |
| 20260903092524 | 76 | 0 | 0.0 | 0.0 | 0.00 | 0.00 | 0.00 | 82 | 1013.2 |
| 20260903092023 | 76 | 0 | 0.0 | 0.0 | 0.00 | 0.00 | 0.00 | 82 | 1013.1 |
| 20260903091551 | 76 | 0 | 0.0 | 0.0 | 0.00 | 0.00 | 0.00 | 82 | 1013.3 |
| 20260903091021 | 76 | 0 | 0.0 | 0.0 | 0.00 | 0.00 | 0.00 | 82 | 1013.4 |
| 20260903090523 | 76 | 0 | 0.0 | 0.0 | 0.00 | 0.00 | 0.00 | 82 | 1013.3 |
| 20260903090044 | 76 | 0 | 0.0 | 0.0 | 0.00 | 0.00 | 0.00 | 82 | 1013.4 |
| 20260903085517 | 76 | 0 | 0.0 | 0.0 | 0.00 | 0.00 | 0.00 | 81 | 1013.3 |
| 20260903085020 | 76 | 0 | 0.0 | 0.0 | 0.00 | 0.00 | 0.00 | 80 | 1013.2 |
| 20260903084542 | 77 | 0 | 0.0 | 0.0 | 0.00 | 0.00 | 0.00 | 80 | 1013.2 |
| 20260903084020 | 77 | 0 | 0.0 | 0.0 | 0.00 | 0.00 | 0.00 | 80 | 1013.1 |
| 20260903083520 | 77 | 0 | 0.0 | 0.0 | 0.00 | 0.00 | 0.00 | 79 | 1013.1 |
| 20260903083041 | 77 | 0 | 0.0 | 0.0 | 0.00 | 0.00 | 0.00 | 79 | 1013.2 |
| 20260903082522 | 77 | 0 | 0.0 | 0.0 | 0.00 | 0.00 | 0.00 | 79 | 1013.3 |
| 20260903082023 | 77 | 0 | 0.0 | 0.0 | 0.00 | 0.00 | 0.00 | 79 | 1013.1 |
| 20260903081545 | 77 | 0 | 0.0 | 0.0 | 0.00 | 0.00 | 0.00 | 79 | 1013.3 |
| 20260903081025 | 77 | 0 | 0.0 | 0.0 | 0.00 | 0.00 | 0.00 | 79 | 1013.3 |
| 20260903080527 | 78 | 0 | 0.0 | 0.0 | 0.00 | 0.00 | 0.00 | 78 | 1013.3 |
| 20260903080043 | 78 | 0 | 0.0 | 0.0 | 0.00 | 0.00 | 0.00 | 78 | 1013.4 |
| 20260903075519 | 78 | 0 | 0.0 | 0.0 | 0.00 | 0.00 | 0.00 | 78 | 1013.3 |
| 20260903075021 | 78 | 0 | 0.0 | 0.0 | 0.00 | 0.00 | 0.00 | 78 | 1013.1 |
| 20260903074544 | 78 | 0 | 0.0 | 0.0 | 0.00 | 0.00 | 0.00 | 77 | 1013.2 |
| 20260903074017 | 78 | 0 | 0.0 | 0.0 | 0.00 | 0.00 | 0.00 | 77 | 1013.2 |
| 20260903073520 | 78 | 0 | 0.0 | 0.0 | 0.00 | 0.00 | 0.00 | 77 | 1013.2 |
| 20260903073042 | 78 | 0 | 0.0 | 0.0 | 0.00 | 0.00 | 0.00 | 76 | 1013.2 |
| 20260903072521 | 79 | 0 | 0.0 | 0.0 | 0.00 | 0.00 | 0.00 | 76 | 1013.3 |
| 20260903072025 | 79 | 0 | 0.0 | 0.0 | 0.00 | 0.00 | 0.00 | 76 | 1013.2 |
| 20260903071555 | 79 | 0 | 0.0 | 0.0 | 0.00 | 0.00 | 0.00 | 76 | 1013.3 |
| 20260903071022 | 79 | 0 | 0.0 | 0.0 | 0.00 | 0.00 | 0.00 | 76 | 1013.4 |
| 20260903070526 | 79 | 0 | 0.0 | 4.0 | 0.00 | 0.00 | 0.00 | 76 | 1013.4 |
| 20260903070058 | 79 | 0 | 0.0 | 7.0 | 0.00 | 0.00 | 0.00 | 75 | 1013.4 |
| 20260903065518 | 79 | 101 | 2.0 | 7.0 | 0.00 | 0.00 | 0.00 | 75 | 1013.4 |
| 20260903065020 | 80 | 0 | 0.0 | 4.0 | 0.00 | 0.00 | 0.00 | 75 | 1013.5 |
| 20260903064549 | 80 | 0 | 0.0 | 8.0 | 0.00 | 0.00 | 0.00 | 74 | 1013.6 |
| 20260903064024 | 80 | 0 | 0.0 | 12.0 | 0.00 | 0.00 | 0.00 | 74 | 1013.6 |
| 20260903063526 | 80 | 112 | 5.0 | 12.0 | 0.00 | 0.00 | 0.00 | 74 | 1013.7 |
| 20260903063048 | 80 | 152 | 5.0 | 11.0 | 0.00 | 0.00 | 0.00 | 73 | 1013.7 |
| 20260903062524 | 81 | 124 | 4.0 | 11.0 | 0.00 | 0.00 | 0.00 | 72 | 1013.8 |
| 20260903062024 | 81 | 140 | 4.0 | 10.0 | 0.00 | 0.00 | 0.00 | 72 | 1013.7 |
| 20260903061543 | 81 | 117 | 4.0 | 9.0 | 0.00 | 0.00 | 0.00 | 71 | 1013.7 |
| 20260903061029 | 81 | 111 | 2.0 | 9.0 | 0.00 | 0.00 | 0.00 | 70 | 1013.8 |
| 20260903060525 | 81 | 123 | 3.0 | 8.0 | 0.00 | 0.00 | 0.00 | 70 | 1013.8 |
| 20260903060051 | 81 | 113 | 3.0 | 8.0 | 0.00 | 0.00 | 0.00 | 70 | 1013.8 |
| 20260903055525 | 82 | 99 | 2.0 | 6.0 | 0.00 | 0.00 | 0.00 | 69 | 1013.7 |
| 20260903055025 | 82 | 0 | 1.0 | 7.0 | 0.00 | 0.00 | 0.00 | 69 | 1013.8 |
| 20260903054550 | 82 | 120 | 2.0 | 7.0 | 0.00 | 0.00 | 0.00 | 68 | 1013.7 |
| 20260903054025 | 82 | 0 | 2.0 | 7.0 | 0.00 | 0.00 | 0.00 | 68 | 1013.8 |
| 20260903053528 | 82 | 116 | 0.0 | 7.0 | 0.00 | 0.00 | 0.00 | 68 | 1013.7 |
| 20260903053047 | 82 | 128 | 3.0 | 9.0 | 0.00 | 0.00 | 0.00 | 68 | 1013.7 |
| 20260903052524 | 83 | 131 | 3.0 | 9.0 | 0.00 | 0.00 | 0.00 | 67 | 1013.7 |
| 20260903052022 | 83 | 116 | 2.0 | 10.0 | 0.00 | 0.00 | 0.00 | 66 | 1013.8 |
| 20260903051545 | 83 | 119 | 5.0 | 11.0 | 0.00 | 0.00 | 0.00 | 66 | 1013.7 |
| 20260903051022 | 83 | 116 | 4.0 | 11.0 | 0.00 | 0.00 | 0.00 | 66 | 1013.7 |
| 20260903050523 | 83 | 109 | 5.0 | 10.0 | 0.00 | 0.00 | 0.00 | 65 | 1013.7 |
| 20260903050056 | 84 | 121 | 5.0 | 11.0 | 0.00 | 0.00 | 0.00 | 65 | 1013.6 |
| 20260903045524 | 84 | 114 | 5.0 | 11.0 | 0.00 | 0.00 | 0.00 | 65 | 1013.7 |
| 20260903045022 | 84 | 95 | 3.0 | 8.0 | 0.00 | 0.00 | 0.00 | 64 | 1013.7 |
| 20260903044558 | 84 | 97 | 3.0 | 10.0 | 0.00 | 0.00 | 0.00 | 64 | 1013.6 |
| 20260903044024 | 85 | 117 | 3.0 | 12.0 | 0.00 | 0.00 | 0.00 | 64 | 1013.6 |
| 20260903043525 | 85 | 103 | 7.0 | 12.0 | 0.00 | 0.00 | 0.00 | 64 | 1013.6 |
| 20260903043046 | 85 | 109 | 6.0 | 12.0 | 0.00 | 0.00 | 0.00 | 64 | 1013.6 |
| 20260903042526 | 85 | 138 | 6.0 | 12.0 | 0.00 | 0.00 | 0.00 | 63 | 1013.7 |
| 20260903042022 | 86 | 138 | 6.0 | 11.0 | 0.00 | 0.00 | 0.00 | 63 | 1013.6 |
| 20260903041548 | 86 | 129 | 7.0 | 12.0 | 0.00 | 0.00 | 0.00 | 62 | 1013.6 |
| 20260903041024 | 86 | 142 | 8.0 | 12.0 | 0.00 | 0.00 | 0.00 | 62 | 1013.6 |
| 20260903040521 | 86 | 109 | 4.0 | 10.0 | 0.00 | 0.00 | 0.00 | 61 | 1013.6 |
| 20260903040050 | 87 | 130 | 4.0 | 12.0 | 0.00 | 0.00 | 0.00 | 60 | 1013.7 |
| 20260903035523 | 87 | 121 | 4.0 | 12.0 | 0.00 | 0.00 | 0.00 | 60 | 1013.6 |
| 20260903035023 | 87 | 137 | 5.0 | 12.0 | 0.00 | 0.00 | 0.00 | 59 | 1013.7 |